When you browse on this site, cookies collect data to enhance your experience and personalize the content and advertising you see.
Visit our Privacy Policy to learn more. By continuing to use the site, you agree to this use of cookies and data.
  • în România
  • Lista ţărilor
  • Pe 7 zile
  • Temperatura apei
  • Hartă satelitară
  • Meteo pe hartă
  • Widget-uri
  • user-avatar
    Intrare

    Meteo pe oră la Kashaevo

    Astăzi, 19 Martie, Marţi

    Timp Temperatura Precipitaţii Vânt Presiune Umiditate
    00:00 +1°C° 0.4 mm 4 m/s 742 mmHg 92%
    01:00 +1°C° 0.4 mm 3 m/s 742 mmHg 94%
    02:00 +1°C° 0 mm 3 m/s 742 mmHg 96%
    03:00 +2°C° 0.5 mm 2 m/s 742 mmHg 96%
    04:00 +2°C° 0.5 mm 2 m/s 741 mmHg 97%
    05:00 +3°C° 0.5 mm 1 m/s 741 mmHg 97%
    06:00 +3°C° 0.1 mm 1 m/s 742 mmHg 97%
    07:00 +3°C° 0.1 mm 1 m/s 742 mmHg 96%
    08:00 +4°C° 0 mm 1 m/s 742 mmHg 94%
    09:00 +3°C° 0.1 mm 2 m/s 742 mmHg 92%
    10:00 +4°C° 0.1 mm 2 m/s 743 mmHg 89%
    11:00 +5°C° 0.1 mm 2 m/s 743 mmHg 86%
    12:00 +6°C° 0 mm 2 m/s 743 mmHg 83%
    13:00 +5°C° 0 mm 3 m/s 743 mmHg 80%
    14:00 +7°C° 0 mm 3 m/s 743 mmHg 77%
    15:00 +5°C° 0 mm 3 m/s 744 mmHg 81%
    16:00 +5°C° 0 mm 2 m/s 744 mmHg 84%
    17:00 +4°C° 0 mm 2 m/s 744 mmHg 87%
    18:00 +3°C° 0 mm 2 m/s 744 mmHg 88%
    19:00 +2°C° 0 mm 2 m/s 744 mmHg 89%
    20:00 0°C° 0 mm 3 m/s 745 mmHg 90%
    21:00 +1°C° 0 mm 2 m/s 745 mmHg 91%
    22:00 +1°C° 0 mm 2 m/s 745 mmHg 91%
    23:00 +1°C° 0 mm 2 m/s 745 mmHg 91%

    Mâine, 20 Martie, Miercuri

    Timp Temperatura Precipitaţii Vânt Presiune Umiditate
    00:00 -1°C° 0 mm 2 m/s 745 mmHg 91%
    01:00 -1°C° 0 mm 2 m/s 745 mmHg 91%
    02:00 -1°C° 0 mm 3 m/s 745 mmHg 91%
    03:00 -2°C° 0 mm 3 m/s 746 mmHg 92%
    04:00 -2°C° 0 mm 3 m/s 746 mmHg 92%
    05:00 -2°C° 0 mm 3 m/s 746 mmHg 93%
    06:00 -2°C° 0 mm 3 m/s 746 mmHg 90%
    07:00 -1°C° 0 mm 3 m/s 746 mmHg 88%
    08:00 -1°C° 0 mm 4 m/s 747 mmHg 85%
    09:00 -1°C° 0 mm 4 m/s 747 mmHg 81%
    10:00 0°C° 0 mm 4 m/s 747 mmHg 77%
    11:00 +1°C° 0 mm 4 m/s 747 mmHg 73%
    12:00 +1°C° 0.1 mm 4 m/s 748 mmHg 73%
    13:00 +3°C° 0.1 mm 4 m/s 748 mmHg 73%
    14:00 +3°C° 0.1 mm 4 m/s 748 mmHg 72%
    15:00 +1°C° 0.1 mm 4 m/s 748 mmHg 75%
    16:00 +1°C° 0.1 mm 3 m/s 748 mmHg 78%
    17:00 +1°C° 0.1 mm 3 m/s 748 mmHg 81%
    18:00 0°C° 0 mm 3 m/s 748 mmHg 84%
    19:00 -1°C° 0 mm 3 m/s 748 mmHg 86%
    20:00 -2°C° 0 mm 2 m/s 748 mmHg 88%
    21:00 -2°C° 0 mm 3 m/s 748 mmHg 88%
    22:00 -2°C° 0 mm 3 m/s 747 mmHg 87%
    23:00 -2°C° 0 mm 3 m/s 747 mmHg 86%

    Poimâine, 21 Martie, Joi

    Timp Temperatura Precipitaţii Vânt Presiune Umiditate
    00:00 -2°C° 0 mm 3 m/s 746 mmHg 86%
    01:00 -2°C° 0 mm 3 m/s 746 mmHg 85%
    02:00 -3°C° 0 mm 4 m/s 745 mmHg 84%
    03:00 -1°C° 0.4 mm 3 m/s 744 mmHg 86%
    04:00 -1°C° 0.4 mm 3 m/s 744 mmHg 88%
    05:00 -1°C° 0.4 mm 3 m/s 743 mmHg 90%
    06:00 -1°C° 0.3 mm 4 m/s 743 mmHg 88%
    07:00 -1°C° 0.3 mm 4 m/s 743 mmHg 86%
    08:00 0°C° 0.3 mm 4 m/s 743 mmHg 84%
    09:00 0°C° 0 mm 5 m/s 744 mmHg 81%
    10:00 +1°C° 0 mm 5 m/s 744 mmHg 77%
    11:00 +1°C° 0 mm 5 m/s 745 mmHg 74%
    12:00 +1°C° 0 mm 5 m/s 745 mmHg 74%
    13:00 +1°C° 0 mm 5 m/s 745 mmHg 75%
    14:00 +1°C° 0 mm 5 m/s 745 mmHg 75%
    15:00 +1°C° 0 mm 4 m/s 745 mmHg 79%
    16:00 +1°C° 0 mm 3 m/s 746 mmHg 82%
    17:00 +2°C° 0 mm 2 m/s 746 mmHg 86%
    18:00 +1°C° 0 mm 2 m/s 746 mmHg 88%
    19:00 +1°C° 0 mm 2 m/s 746 mmHg 89%
    20:00 +1°C° 0 mm 1 m/s 746 mmHg 91%
    21:00 +1°C° 0 mm 1 m/s 746 mmHg 92%
    22:00 -2°C° 0 mm 2 m/s 745 mmHg 92%
    23:00 -2°C° 0 mm 2 m/s 745 mmHg 93%

    22 Martie, Vineri

    Timp Temperatura Precipitaţii Vânt Presiune Umiditate
    00:00 -2°C° 0 mm 2 m/s 745 mmHg 92%
    01:00 -2°C° 0 mm 2 m/s 744 mmHg 91%
    02:00 -1°C° 0 mm 2 m/s 744 mmHg 90%
    03:00 -1°C° 0.1 mm 3 m/s 743 mmHg 90%
    04:00 0°C° 0.1 mm 3 m/s 742 mmHg 91%
    05:00 0°C° 0.1 mm 4 m/s 741 mmHg 91%
    06:00 0°C° 0.1 mm 5 m/s 741 mmHg 88%
    07:00 +1°C° 0.1 mm 6 m/s 741 mmHg 84%
    08:00 0°C° 0.1 mm 7 m/s 741 mmHg 81%
    09:00 +2°C° 0 mm 7 m/s 741 mmHg 73%
    10:00 +2°C° 0 mm 7 m/s 741 mmHg 65%
    11:00 +2°C° 0 mm 7 m/s 741 mmHg 58%
    12:00 +2°C° 0 mm 7 m/s 742 mmHg 58%
    13:00 +2°C° 0 mm 7 m/s 742 mmHg 59%
    14:00 +2°C° 0 mm 7 m/s 742 mmHg 60%
    15:00 0°C° 0 mm 7 m/s 743 mmHg 63%
    16:00 -1°C° 0 mm 6 m/s 743 mmHg 67%
    17:00 -2°C° 0 mm 6 m/s 744 mmHg 70%
    18:00 -2°C° 0 mm 6 m/s 744 mmHg 73%
    19:00 -2°C° 0 mm 6 m/s 745 mmHg 75%
    20:00 -1°C° 0 mm 5 m/s 745 mmHg 78%
    21:00 -2°C° 0 mm 5 m/s 746 mmHg 80%
    22:00 -2°C° 0 mm 5 m/s 746 mmHg 83%
    23:00 -2°C° 0 mm 4 m/s 746 mmHg 85%

    23 Martie, Sâmbătă

    Timp Temperatura Precipitaţii Vânt Presiune Umiditate
    00:00 -2°C° 0 mm 4 m/s 747 mmHg 85%
    01:00 -1°C° 0 mm 3 m/s 747 mmHg 85%
    02:00 -1°C° 0 mm 3 m/s 748 mmHg 84%
    03:00 -2°C° 0 mm 2 m/s 748 mmHg 88%
    04:00 -3°C° 0 mm 2 m/s 748 mmHg 91%
    05:00 -3°C° 0 mm 2 m/s 748 mmHg 94%
    06:00 -3°C° 0 mm 2 m/s 748 mmHg 90%
    07:00 -2°C° 0 mm 2 m/s 748 mmHg 87%
    08:00 +1°C° 0 mm 1 m/s 749 mmHg 83%
    09:00 +1°C° 0 mm 2 m/s 748 mmHg 77%
    10:00 +2°C° 0 mm 2 m/s 748 mmHg 71%
    11:00 +4°C° 0 mm 2 m/s 748 mmHg 65%
    12:00 +4°C° 0 mm 2 m/s 747 mmHg 65%
    13:00 +4°C° 0 mm 3 m/s 746 mmHg 65%
    14:00 +4°C° 0 mm 3 m/s 746 mmHg 65%
    15:00 +4°C° 0 mm 3 m/s 745 mmHg 69%
    16:00 +4°C° 0 mm 3 m/s 745 mmHg 72%
    17:00 +3°C° 0 mm 3 m/s 744 mmHg 75%
    18:00 +3°C° 0 mm 3 m/s 744 mmHg 80%
    19:00 +3°C° 0 mm 4 m/s 743 mmHg 85%
    20:00 +3°C° 0 mm 4 m/s 743 mmHg 90%
    21:00 +3°C° 0.1 mm 4 m/s 742 mmHg 91%
    22:00 +4°C° 0.1 mm 4 m/s 742 mmHg 91%
    23:00 +4°C° 0.1 mm 4 m/s 742 mmHg 91%

    24 Martie, Duminică

    Timp Temperatura Precipitaţii Vânt Presiune Umiditate
    00:00 +3°C° 0.1 mm 4 m/s 742 mmHg 88%
    01:00 +2°C° 0.1 mm 5 m/s 743 mmHg 85%
    02:00 +1°C° 0.1 mm 5 m/s 743 mmHg 81%
    03:00 0°C° 0 mm 5 m/s 744 mmHg 79%
    04:00 -2°C° 0 mm 4 m/s 744 mmHg 78%
    05:00 -3°C° 0 mm 4 m/s 745 mmHg 76%
    06:00 -2°C° 0 mm 4 m/s 745 mmHg 72%
    07:00 -2°C° 0 mm 5 m/s 746 mmHg 69%
    08:00 -1°C° 0 mm 5 m/s 746 mmHg 66%
    09:00 0°C° 0 mm 5 m/s 746 mmHg 62%
    10:00 +1°C° 0 mm 5 m/s 747 mmHg 59%
    11:00 +1°C° 0 mm 5 m/s 747 mmHg 55%
    12:00 +2°C° 0 mm 5 m/s 747 mmHg 53%
    13:00 +2°C° 0 mm 5 m/s 747 mmHg 51%
    14:00 +2°C° 0 mm 5 m/s 747 mmHg 48%
    15:00 +3°C° 0 mm 4 m/s 747 mmHg 52%
    16:00 +2°C° 0 mm 3 m/s 747 mmHg 55%
    17:00 +3°C° 0 mm 2 m/s 747 mmHg 59%
    18:00 +1°C° 0 mm 2 m/s 747 mmHg 64%
    19:00 +1°C° 0 mm 1 m/s 747 mmHg 69%
    20:00 -1°C° 0 mm 0 m/s 747 mmHg 74%
    21:00 0°C° 0 mm 1 m/s 746 mmHg 74%
    22:00 0°C° 0 mm 1 m/s 746 mmHg 73%
    23:00 0°C° 0 mm 1 m/s 746 mmHg 73%
    Arată mai mult